Wind_Speed
17 18 18 18 19 20 20 21 22 23 22 21 22 22 22 23 23 24 25 25 25 26 25 27 29 30 31 33 34 36 40 44 47 47 48 49 50 51 51 51 51 51 50 50
15 17 16 17 17 18 19 20 21 21 20 20 20 20 20 20 21 22 23 24 24 25 25 25 25 26 28 30 32 33 35 38 42 44 45 45 45 48 50 50 50 50 51 51
13 13 14 15 16 16 17 18 19 18 18 19 19 18 18 18 18 19 20 21 22 23 23 23 23 24 25 27 28 30 32 34 37 40 43 44 44 46 48 49 49 49 51 52
10 11 12 12 13 14 15 15 15 15 15 15 16 16 16 17 16 17 18 19 19 20 21 21 22 23 23 24 26 27 29 31 35 38 39 42 44 46 46 47 48 48 49 50
9 9 10 10 11 12 12 12 12 12 13 13 13 15 15 15 15 16 17 19 19 19 20 21 21 22 23 24 25 26 27 29 32 35 36 38 40 42 44 44 45 47 47 48
8 9 10 10 10 10 10 11 11 11 11 12 12 14 14 15 15 15 16 16 17 18 18 19 20 21 22 22 23 24 26 27 28 31 34 36 37 39 41 42 42 44 45 47
7 7 8 9 8 8 8 9 9 10 11 11 11 12 13 14 14 14 15 16 17 17 17 17 18 19 19 20 21 22 23 24 26 28 32 34 35 37 39 39 41 41 43 45
5 6 6 7 7 7 7 8 8 9 10 10 10 11 12 13 13 14 15 15 16 17 17 16 16 16 17 17 18 20 21 22 24 25 27 29 31 32 34 36 39 40 41 42
5 5 5 6 7 7 7 7 7 9 10 11 10 10 10 11 13 14 15 15 15 15 15 15 15 16 17 17 17 18 19 19 20 22 23 24 26 28 30 32 34 35 38 40
6 6 6 6 6 7 7 7 8 8 10 10 10 11 11 11 13 14 14 15 14 14 14 15 15 14 15 15 15 15 16 17 16 17 19 21 23 25 28 30 31 32 34 37
6 6 6 7 7 7 8 7 8 9 10 11 11 11 11 11 12 12 13 13 13 13 13 12 12 12 11 12 12 12 13 14 15 16 17 19 21 24 26 28 29 31 31 34
6 6 6 7 7 7 7 8 9 10 11 11 12 12 11 11 11 11 12 11 11 11 12 11 10 10 10 9 9 9 10 11 12 12 14 17 19 22 23 25 27 29 31 32
5 5 5 6 7 7 8 8 9 10 11 12 12 12 11 11 11 11 11 10 10 11 11 11 10 10 9 9 9 9 9 11 12 12 14 15 17 19 20 21 24 27 30 31
5 5 6 7 7 8 8 9 10 11 12 13 12 12 11 11 10 10 9 9 10 11 11 10 10 11 10 10 10 10 10 11 11 13 14 15 16 17 19 20 22 24 27 30
6 6 7 8 9 9 9 10 12 12 13 13 13 12 11 11 10 10 10 11 11 11 11 11 11 11 11 10 11 11 11 11 12 13 14 15 15 16 17 18 19 21 23 25
8 8 9 9 11 11 10 11 12 12 13 13 13 11 11 11 11 10 10 11 11 11 11 11 11 12 11 11 11 12 12 12 12 13 14 14 15 16 16 17 18 20 22 24
10 11 11 11 12 12 11 12 12 12 13 13 12 10 10 10 9 10 10 11 12 12 12 13 13 13 13 12 12 13 13 13 13 13 14 14 14 14 14 16 17 19 21 23
12 13 13 13 13 13 13 13 14 14 13 13 12 11 11 10 10 10 11 12 12 13 14 14 14 14 14 14 15 15 15 16 15 15 15 15 15 16 15 15 16 18 20 22
14 14 14 15 15 14 14 14 15 15 14 13 13 12 12 11 11 12 13 14 14 14 15 15 15 15 16 16 16 16 16 17 17 17 17 17 18 18 18 18 20 20 21 22
15 16 16 16 17 16 16 15 15 15 14 14 14 14 14 14 14 14 15 16 16 16 16 16 16 17 17 17 17 17 18 18 19 19 19 20 19 19 19 20 21 22 24 25
16 17 17 17 18 17 17 16 16 16 16 16 16 16 16 16 16 16 16 17 18 19 18 18 18 19 19 20 20 20 20 20 21 21 21 21 21 21 21 22 23 24 25 26
17 18 18 18 18 17 17 17 17 18 18 17 17 17 17 17 18 18 19 20 21 21 21 22 22 23 23 24 24 24 24 23 23 23 23 23 23 24 24 24 25 26 27 28
18 19 19 19 18 18 18 19 19 19 19 19 19 19 19 20 21 22 22 23 23 24 25 25 26 26 26 26 27 27 27 27 27 26 26 26 26 26 27 27 28 28 29 30
19 20 20 21 20 20 21 22 22 21 21 21 21 21 22 23 24 25 25 26 27 27 28 28 29 29 29 29 30 30 29 29 29 28 28 28 29 29 30 30 31 31 32 32
21 21 22 22 22 22 23 24 24 24 24 24 24 25 26 26 27 27 28 28 29 30 31 31 31 31 31 31 31 31 31 31 30 30 30 30 30 31 32 33 33 34 35 34
23 24 25 25 24 25 25 26 26 27 27 27 28 28 29 30 30 30 29 30 30 31 32 32 32 32 32 32 32 31 31 31 32 32 33 32 32 33 34 35 35 36 36 36
Wind_Direction
231 234 237 240 242 246 251 254 257 259 260 260 263 266 267 268 269 267 268 270 272 272 271 269 265 261 257 254 251 250 248 244 242 241 240 240 239 238 239 241 242 243 243 244
229 232 236 240 243 248 251 254 258 261 262 262 265 268 270 270 271 270 271 272 272 273 273 273 269 264 260 256 252 251 248 245 243 241 239 240 240 239 239 240 242 242 241 243
228 236 240 244 245 249 253 256 259 260 260 263 266 268 272 271 272 272 274 275 276 273 273 271 270 266 262 257 252 250 250 247 244 241 239 239 239 238 239 240 242 242 242 244
227 232 240 246 249 250 256 258 258 260 263 267 270 273 271 272 275 277 278 280 281 279 277 275 273 269 265 261 258 254 251 248 246 243 241 240 238 238 238 241 242 242 243 243
231 234 239 245 249 252 255 257 259 261 265 270 273 277 278 277 276 276 280 280 283 283 279 277 276 274 267 264 262 257 253 250 247 244 243 241 239 239 239 241 242 241 241 242
235 239 244 250 253 255 256 257 258 262 268 274 278 281 282 280 279 281 283 285 284 286 285 282 279 277 271 265 262 259 255 250 247 245 243 243 242 242 242 242 243 242 241 242
234 237 244 249 253 256 261 261 263 269 273 278 281 284 284 282 283 285 287 288 290 290 290 287 280 277 275 268 265 262 260 253 249 247 244 243 244 244 244 245 245 243 241 242
240 239 240 245 251 262 269 269 270 279 284 286 284 286 289 287 288 289 290 291 294 293 291 292 285 280 279 274 268 265 260 254 253 250 246 244 244 245 246 248 247 245 243 243
240 242 249 256 259 266 274 268 276 284 287 291 294 297 296 291 290 290 292 294 294 293 293 293 290 285 283 280 272 266 260 259 256 252 247 244 245 245 247 247 248 244 242 243
254 256 260 266 270 271 271 273 282 289 293 296 298 300 301 293 291 290 291 296 295 293 296 298 294 289 283 280 275 268 263 260 257 254 249 246 247 249 251 249 247 245 245 244
262 263 265 268 273 270 271 275 280 287 293 297 299 303 303 299 298 296 295 296 298 300 298 299 298 298 292 287 279 275 267 263 261 260 256 252 253 254 255 253 251 250 249 248
278 268 272 273 274 274 275 278 283 288 293 298 301 305 304 305 302 303 301 300 304 306 305 305 305 306 303 301 293 285 271 267 265 267 265 260 258 257 255 256 258 257 255 254
289 280 279 275 277 279 281 280 281 287 292 300 303 305 307 308 307 306 306 309 312 316 314 312 310 306 304 306 303 291 279 278 277 274 274 272 268 263 262 265 264 260 259 257
289 288 286 287 285 283 283 282 285 291 296 300 304 307 304 303 304 307 309 312 314 318 319 316 313 312 309 308 304 302 294 289 288 284 282 281 276 273 272 272 270 266 262 259
288 284 283 286 286 284 285 286 289 293 298 300 303 303 302 302 304 303 308 315 318 321 321 322 321 322 318 315 312 311 306 299 293 290 288 286 284 282 280 277 277 272 268 267
288 285 284 288 291 290 290 288 289 294 297 299 300 299 296 300 303 302 306 311 313 315 317 319 320 321 322 320 319 318 314 305 302 296 295 293 290 288 283 281 281 277 272 270
289 288 288 290 290 289 292 292 292 295 299 299 299 296 296 301 306 308 311 312 311 311 311 314 314 315 317 317 318 319 319 317 310 306 305 302 300 297 289 286 284 282 278 274
294 291 290 291 290 290 291 291 293 294 294 294 292 290 294 297 299 302 305 305 306 308 310 311 313 314 314 314 312 312 311 311 311 309 306 301 301 297 292 292 292 291 287 284
293 293 294 293 293 293 293 293 293 291 292 291 290 289 290 291 293 295 298 301 302 305 305 305 308 312 311 311 310 308 309 310 310 309 309 306 303 298 293 291 291 293 291 290
290 293 295 296 297 297 296 292 290 290 293 291 288 289 289 287 288 290 293 297 300 302 303 302 303 305 307 307 308 308 308 308 309 309 309 308 305 303 300 297 297 296 294 292
289 292 293 293 295 297 294 292 290 290 293 291 288 288 287 286 286 289 293 296 299 301 301 300 300 301 301 301 301 302 302 303 304 305 305 306 305 303 300 300 301 300 299 297
288 288 289 289 291 293 291 289 290 289 290 289 288 288 288 287 287 289 292 294 296 297 297 297 297 298 297 297 297 298 299 299 300 301 302 302 303 303 301 301 300 300 300 299
286 284 284 287 288 287 287 286 286 287 287 287 286 286 288 289 289 290 291 292 293 294 296 297 297 297 296 295 295 295 296 297 299 299 299 299 301 302 301 301 300 300 300 300
284 281 281 283 284 282 283 286 286 285 284 283 283 285 288 290 290 290 291 291 292 293 294 294 294 294 294 294 294 294 294 295 297 298 298 299 300 301 301 300 300 300 300 301
285 284 282 282 281 280 281 282 282 282 281 281 282 283 286 289 290 290 289 290 291 292 293 294 293 293 294 293 293 294 295 295 296 296 297 297 297 299 300 299 300 300 300 300
284 283 281 282 281 281 282 280 280 279 279 280 281 283 285 287 288 289 288 289 291 293 294 294 293 292 293 293 294 295 295 295 296 296 296 295 296 296 297 298 298 299 299 299
Height
5668 5672 5673 5676 5678 5681 5682 5683 5685 5685 5686 5687 5688 5688 5688 5688 5688 5688 5687 5687 5686 5685 5684 5683 5682 5682 5683 5684 5686 5688 5691 5695 5698 5703 5708 5713 5719 5725 5731 5736 5741 5745 5750 5755
5666 5668 5671 5673 5675 5677 5678 5680 5681 5682 5682 5683 5684 5684 5684 5683 5683 5683 5682 5681 5681 5680 5679 5678 5676 5676 5676 5677 5678 5680 5683 5686 5689 5694 5699 5704 5708 5714 5720 5725 5729 5734 5739 5744
5664 5667 5669 5671 5672 5674 5675 5677 5677 5678 5679 5679 5680 5681 5680 5680 5679 5678 5678 5676 5675 5675 5674 5673 5672 5671 5671 5671 5672 5674 5676 5678 5681 5685 5689 5693 5698 5703 5709 5714 5718 5723 5728 5733
5662 5665 5667 5669 5670 5672 5673 5674 5675 5675 5676 5676 5677 5677 5677 5676 5675 5674 5674 5673 5671 5670 5669 5668 5667 5666 5666 5666 5666 5667 5668 5671 5673 5676 5680 5684 5689 5694 5699 5703 5707 5712 5716 5722
5662 5664 5666 5667 5669 5670 5671 5671 5672 5673 5673 5673 5674 5673 5674 5672 5672 5672 5671 5669 5668 5666 5665 5664 5662 5661 5661 5660 5660 5661 5662 5664 5666 5668 5671 5675 5679 5684 5688 5692 5696 5700 5705 5710
5662 5663 5665 5666 5667 5668 5669 5670 5670 5671 5671 5672 5672 5671 5671 5670 5669 5668 5667 5666 5664 5663 5661 5660 5659 5657 5656 5656 5655 5656 5656 5656 5658 5660 5663 5666 5670 5674 5678 5681 5685 5690 5694 5700
5662 5664 5665 5666 5666 5667 5668 5669 5669 5669 5669 5670 5669 5668 5669 5667 5666 5665 5664 5663 5661 5660 5658 5656 5655 5653 5652 5651 5650 5650 5650 5650 5651 5653 5655 5658 5661 5665 5668 5671 5675 5679 5684 5689
5662 5664 5664 5665 5666 5666 5666 5667 5668 5668 5667 5668 5667 5666 5667 5665 5663 5662 5661 5660 5658 5656 5655 5653 5651 5650 5648 5647 5645 5645 5644 5645 5645 5646 5648 5650 5653 5656 5659 5662 5665 5669 5673 5678
5662 5664 5664 5664 5665 5666 5665 5665 5666 5666 5665 5665 5665 5665 5664 5663 5662 5660 5659 5658 5656 5654 5652 5650 5648 5646 5645 5643 5641 5641 5640 5640 5640 5640 5642 5644 5646 5648 5651 5653 5656 5659 5664 5668
5662 5664 5664 5664 5664 5665 5665 5665 5665 5664 5663 5663 5663 5662 5662 5660 5659 5658 5657 5655 5653 5651 5649 5647 5645 5643 5641 5640 5638 5637 5636 5636 5635 5635 5636 5638 5640 5642 5643 5646 5648 5651 5654 5658
5662 5663 5664 5664 5664 5663 5664 5664 5663 5663 5662 5661 5660 5663 5660 5658 5656 5655 5654 5652 5650 5649 5647 5644 5642 5640 5639 5637 5636 5634 5633 5632 5632 5632 5632 5633 5635 5636 5637 5639 5640 5643 5646 5649
5661 5662 5662 5663 5663 5662 5662 5662 5662 5662 5661 5659 5658 5662 5657 5655 5654 5652 5651 5650 5648 5646 5644 5642 5640 5638 5636 5635 5633 5631 5630 5630 5629 5629 5629 5629 5630 5631 5632 5632 5633 5635 5637 5640
5661 5661 5661 5662 5663 5662 5661 5660 5660 5660 5659 5658 5657 5660 5655 5653 5651 5650 5649 5647 5646 5644 5642 5640 5639 5637 5635 5633 5631 5630 5628 5627 5627 5626 5626 5626 5626 5626 5626 5626 5626 5627 5629 5631
5660 5660 5661 5661 5660 5659 5659 5659 5658 5657 5657 5656 5655 5654 5653 5650 5649 5648 5647 5645 5644 5642 5641 5639 5637 5635 5633 5632 5630 5628 5626 5625 5624 5623 5623 5622 5621 5621 5621 5620 5620 5621 5622 5623
5660 5660 5659 5659 5658 5658 5657 5657 5656 5655 5654 5653 5653 5651 5650 5648 5647 5646 5645 5644 5642 5641 5639 5637 5635 5633 5632 5630 5628 5626 5624 5623 5621 5620 5619 5618 5616 5615 5615 5615 5615 5615 5615 5616
5658 5658 5658 5658 5657 5656 5655 5655 5654 5653 5652 5650 5649 5649 5647 5646 5645 5644 5643 5641 5640 5639 5637 5635 5633 5631 5629 5627 5626 5624 5622 5620 5618 5617 5615 5614 5612 5611 5610 5610 5609 5609 5609 5609
5657 5657 5656 5656 5655 5654 5654 5653 5651 5651 5649 5648 5647 5647 5645 5644 5643 5642 5640 5639 5638 5637 5635 5633 5631 5629 5627 5625 5623 5621 5619 5617 5616 5614 5612 5609 5608 5606 5606 5605 5604 5603 5603 5603
5656 5654 5653 5653 5653 5652 5654 5650 5649 5648 5647 5645 5644 5644 5642 5641 5640 5639 5638 5637 5635 5634 5632 5630 5628 5626 5624 5622 5620 5618 5616 5614 5612 5610 5608 5606 5604 5602 5601 5600 5599 5598 5597 5596
5653 5652 5651 5650 5649 5649 5649 5647 5645 5644 5644 5642 5641 5640 5639 5638 5638 5637 5635 5633 5632 5631 5629 5627 5625 5623 5621 5619 5617 5615 5613 5610 5608 5606 5604 5601 5599 5597 5596 5594 5593 5591 5590 5589
5650 5649 5648 5646 5645 5645 5646 5644 5641 5642 5641 5639 5638 5637 5636 5635 5634 5634 5632 5630 5628 5626 5625 5623 5621 5619 5616 5614 5612 5610 5608 5605 5603 5601 5599 5596 5594 5592 5590 5588 5586 5585 5583 5581
5647 5645 5644 5643 5641 5641 5641 5639 5638 5638 5638 5635 5634 5632 5631 5630 5630 5629 5627 5625 5624 5622 5620 5618 5616 5614 5612 5609 5607 5605 5603 5600 5598 5595 5593 5591 5588 5586 5584 5582 5580 5578 5576 5574
5643 5641 5640 5639 5638 5639 5636 5635 5634 5634 5632 5630 5629 5628 5626 5625 5624 5623 5622 5620 5618 5616 5614 5612 5610 5608 5605 5603 5601 5599 5596 5594 5592 5589 5587 5585 5582 5580 5578 5575 5573 5571 5568 5566
5638 5637 5635 5635 5636 5633 5631 5630 5629 5628 5627 5625 5624 5623 5621 5620 5619 5617 5616 5614 5612 5610 5607 5605 5603 5600 5598 5595 5593 5591 5589 5586 5584 5582 5579 5577 5575 5573 5570 5568 5565 5563 5560 5557
5633 5631 5630 5629 5629 5627 5625 5624 5623 5622 5621 5619 5618 5617 5616 5614 5612 5611 5609 5607 5604 5602 5599 5597 5594 5591 5589 5587 5584 5582 5580 5578 5576 5574 5571 5569 5567 5564 5562 5559 5557 5554 5550 5547
5627 5625 5623 5622 5622 5620 5619 5617 5616 5615 5614 5612 5611 5610 5608 5606 5604 5602 5600 5598 5596 5593 5590 5587 5584 5582 5579 5577 5575 5573 5570 5568 5566 5564 5562 5560 5558 5555 5553 5550 5547 5544 5541 5537
5621 5618 5615 5615 5614 5612 5612 5610 5609 5607 5606 5604 5603 5601 5599 5597 5595 5593 5591 5589 5586 5583 5580 5577 5574 5572 5570 5568 5565 5563 5561 5559 5557 5555 5552 5550 5547 5545 5543 5540 5537 5533 5530 5527